Location: Kershaw
(34.5481°N, 80.5823°W)
Time: 13:47:43
(UTC+00:00)

Tiros 1 despin weight - Pass Details

Date: 04 October 2022
Orbit: 590 x 637 km, 48.2° (Epoch: 25 November)

Event Time Altitude Azimuth Distance (km) Brightness Sun altitude
Rises 18:33:23 0° 192° (SSW) 2,804 ? 46.3°
Reaches altitude 10° 18:36:15 10° 173° (S) 1,913 ? 46.0°
Maximum altitude 18:39:12 18° 130° (SE) 1,487 ? 45.7°
Drops below altitude 10° 18:42:10 10° 88° (E) 1,936 ? 45.4°
Sets 18:45:05 0° 69° (ENE) 2,852 ? 45.0°
